Location: LDNL
(36.4545°S, 141.6685°E)
Time: 00:59:00
(UTC+10:00)

Explorer 7 - Pass Details

Date: 13 August 2022
Orbit: 474 x 645 km, 50.3° (Epoch: 29 September)

Event Time Altitude Azimuth Distance (km) Brightness Sun altitude
Rises 17:45:15 0° 317° (NW) 3,017 11.9 1.6°
Reaches altitude 10° 17:47:37 10° 319° (NW) 2,111 11.0 1.2°
Maximum altitude 17:52:30 70° 42° (NE) 720 7.4 0.2°
Drops below altitude 10° 17:57:19 10° 125° (SE) 2,086 9.2 -0.7°
Sets 17:59:39 0° 127° (SE) 2,979 9.9 -1.1°
Enters shadow 17:59:41 - 127° (SE) 2,996 10.0 -1.1°
